Regional Weather Roundup
Issued by NWS

Home | Current Version | Previous Version | Graphics & Text | Print | Product List | Glossary On
Versions: 1 2 3 4 5 6 7 8 9 10 11 12 13 14 15 16 17 18 19 20 21 22 23 24 25 26 27 28 29 30 31 32 33 34 35 36 37 38 39 40 41 42 43 44 45 46 47 48 49 50
042
ASUS43 KMKX 252300
RWRWI

WISCONSIN REGIONAL WEATHER ROUNDUP
NATIONAL WEATHER SERVICE MILWAUKEE/SULLIVAN WI
600 PM CDT TUE JUL 25 2017

NOTE: "FAIR" INDICATES FEW OR NO CLOUDS BELOW 12,000 FEET WITH NO
SIGNIFICANT WEATHER AND/OR OBSTRUCTIONS TO VISIBILITY.

WIZ001-002-006>008-014>016-023>028-260000-
NORTHWEST WISCONSIN

CITY           SKY/WX    TMP DP  RH WIND       PRES   REMARKS
SUPERIOR ARPT  NOT AVBL
ASHLAND        CLOUDY    74  64  71 S7        29.96F
HAYWARD        CLOUDY    73  64  73 S12       29.98F
SIREN          CLOUDY    75  65  73 SE7       29.95F
CUMBERLAND     CLOUDY    72  64  78 S8        29.99F
RICE LAKE      CLOUDY    75  65  69 SE9       30.01S
CHETEK         CLOUDY    76  66  72 S7        30.01S
LADYSMITH      CLOUDY    74  64  70 S9        30.04F
EAU CLAIRE     NOT AVBL
MENOMONIE      MOSUNNY   78  68  71 SE8       29.98F HX  80
NEW RICHMOND   CLOUDY    78  67  69 SE7       29.97F HX  80
OSCEOLA        CLOUDY    79  68  68 S9        29.99S HX  82
$$

WIZ003>005-009-010-017-018-260000-
NORTH CENTRAL WISCONSIN

CITY           SKY/WX    TMP DP  RH WIND       PRES   REMARKS
MANITOWISH WTR CLOUDY    69  60  72 S13G22    30.05S
ARBOR VITAE    MOSUNNY   72  60  66 S16       30.05F
WOODRUFF       MOSUNNY   72  60  66 S16       30.05F
RHINELANDER    CLOUDY    69  58  67 S10       30.07F
EAGLE RIVER    PTSUNNY   71  55  57 S10G20    30.06F
LAND O LAKES   CLOUDY    71  55  58 S8G16     30.07S
PHILLIPS       CLOUDY    68  65  89 SE6       30.02F
TOMAHAWK         N/A     66  60  82 SE3       30.06F
MEDFORD        MOSUNNY   72  61  70 S12       30.05F
MERRILL        CLOUDY    67  65  93 E5        30.07F
$$

WIZ029-030-035-036-043>047-260000-
CENTRAL WISCONSIN

CITY           SKY/WX    TMP DP  RH WIND       PRES   REMARKS
WAUSAU         CLOUDY    71  62  73 SE9       30.06S THUNDER
MOSINEE        PTSUNNY   73  64  73 SE8       30.07F
MARSHFIELD     CLOUDY    75  60  59 S14G21    30.04F
STEVENS POINT  MOSUNNY   75  60  59 S16       30.07F
WAUPACA        PTSUNNY   79  62  56 S13       30.08F HX  80
WAUTOMA        CLOUDY    77  63  61 S13G20    30.07F
WISC RAPIDS    MOSUNNY   79  62  56 S13G20    30.06F HX  80
CAMP DOUGLAS   NOT AVBL
$$

WIZ011>013-019>022-031-037>040-048>050-260000-
NORTHEAST WISCONSIN

CITY           SKY/WX    TMP DP  RH WIND       PRES   REMARKS
ANTIGO         LGT RAIN  66  61  82 S5        30.10F
SHAWANO        PTSUNNY   75  61  63 S3        30.08F
OCONTO         CLOUDY    74  64  72 S7        30.08F
STURGEON BAY     N/A     71  59  65 S16G24    30.11S
GREEN BAY      PTSUNNY   74  64  71 S13       30.10R
MANITOWOC      NOT AVBL
APPLETON       PTSUNNY   75  55  50 S14       30.08F
CLINTONVILLE   CLOUDY   N/A N/A N/A S8        30.07F
OSHKOSH        CLOUDY    75  62  64 S9        30.09F
$$

WIZ032>034-041-042-053>061-260000-
SOUTHWEST WISCONSIN

CITY           SKY/WX    TMP DP  RH WIND       PRES   REMARKS
LA CROSSE      MOSUNNY   82  67  60 S16       30.01F HX  84
SPARTA         CLOUDY    77  66  68 SE9       30.04F
VIROQUA        MOSUNNY   76  68  74 S12G18    30.06F
BOSCOBEL       SUNNY     81  66  60 S7        30.05F HX  83
PRAIRIE DU CHI SUNNY     80  64  58 SE12      30.04F HX  82
PLATTEVILLE    SUNNY     78  69  73 S14       30.10F HX  81
$$

WIZ056-057-062-063-064-067-068-260000-
SOUTH CENTRAL WISCONSIN

CITY           SKY/WX    TMP DP  RH WIND       PRES   REMARKS
REEDSBURG      MOSUNNY   75  67  75 S7        30.07F
BARABOO/DELLS  MOSUNNY   77  61  57 S16       30.09F
LONE ROCK      NOT AVBL
MINERAL POINT  SUNNY     79  68  69 S12G18    30.10F HX  81
MADISON        PTSUNNY   77  62  59 S14       30.09F
MIDDLETON      MOSUNNY   80  64  59 S10       30.10S HX  82
WATERTOWN      MOSUNNY   76  65  69 S8        30.12R
MONROE         MOSUNNY   77  61  57 S15G22    30.11S
JANESVILLE     PTSUNNY   77  61  57 SE14      30.10F
$$

WIZ051-052-058>065-066-070>072-260000-
SOUTHEAST WISCONSIN

CITY           SKY/WX    TMP DP  RH WIND       PRES   REMARKS
MILWAUKEE      CLOUDY    75  60  59 S15       30.12F
WAUKESHA       SUNNY     73  61  64 SE12      30.13F
MILWAUKEE/TIMM SUNNY     75  55  50 S13       30.12F
RACINE         MOSUNNY   73  61  65 S12       30.15S
KENOSHA        MOSUNNY   74  59  59 SE15      30.13F
FOND DU LAC    CLOUDY    77  59  53 S14       30.10F
SHEBOYGAN      CLOUDY    72  61  68 S17       30.13S
WEST BEND      CLOUDY    73  61  64 S8        30.12F
JUNEAU         PTSUNNY   75  62  63 S12       30.13R
$$

LSZ147-162-260000-
LAKE SUPERIOR

STATION/POSITION TIME  TEMP    WIND        PRES    WAVE
                       AIR SEA DIR/SP/G            HT/PER
                 (UTC) (F)     (DEG/KT/KT) (MB)    (FT/S)
W MID LAKE BUOY  2150   61 53  150/  6/  6 1015.0F   0
DEVILS ISLAND    2200   75     180/  9/ 11 1014.0F
PORT WING        2240   64      50/  4/  6 1013.9F
SAXON HARBOR     2240   76     200/  6/  8 1014.2F
$$

LMZ867-665-643>646-260000-
LAKE MICHIGAN

STATION/POSITION TIME  TEMP    WIND        PRES    WAVE
                       AIR SEA DIR/SP/G            HT/PER
                 (UTC) (F)     (DEG/KT/KT) (MB)    (FT/S)
CHAMBERS ISLAND  2240   73     160/  7/ 15 1018.3F
S GREEN BAY BUOY 2230   74 73  160/ 17/ 21 1017.9F
N MID LAKE BUOY  2150   68 67  170/ 14/ 16 1020.4F   2/ 4
NORTHPORT PIER   2240   70     160/  7/ 20 1019.3F
KEWAUNEE LAKESHO 2230   69     180/ 18/ 20 1019.2F
SHEBOYGAN LAKESH 2200   69     170/ 15/ 17 1020.0F
PORT WASHINGTON  2240   72     180/  9/ 15 1021.0S
ATWATER BUOY     2109   70 68  150/ 17/ 19 1020.5F
MILWAUKEE LAKESH 2230   70     150/ 15/ 16   N/A
S MID LAKE BUOY  2150   71 71  130/ 10/ 12 1021.4F   1/ 4
KENOSHA   LAKESH 2200   72     150/ 15/ 19 1020.0
$$

TC  - TEMPERATURE IN CELSIUS
VSB - VISIBILITY IN STATUTE MILES
WCI - WIND CHILL INDEX
HX  - HEAT INDEX





USA.gov is the U.S. government's official web portal to all federal, state and local government web resources and services.